Temp
-4 -4 -5 -5 -5 -5 -5 -5 -5 -5 -4 -5 -5 -5 -5 -5 -5 -5 -4 -5 -6 -6 -6 -6 -6 -5 -4 -5 -5 -5 -6 -5 -5 -5 -6 -6 -6 -5 -5 -5 -6 -6 -6 -5 -7
-4 -4 -5 -5 -5 -6 -6 -6 -6 -5 -5 -5 -5 -5 -5 -5 -5 -5 -5 -6 -7 -7 -7 -6 -6 -5 -5 -5 -5 -5 -6 -6 -5 -5 -6 -6 -7 -5 -5 -6 -5 -6 -6 -6 -6
-5 -5 -5 -6 -6 -6 -6 -6 -6 -6 -6 -5 -5 -5 -5 -5 -5 -5 -6 -6 -6 -7 -7 -7 -6 -6 -6 -5 -5 -5 -5 -5 -5 -5 -6 -6 -6 -6 -6 -6 -6 -5 -6 -6 -6
-5 -5 -5 -6 -6 -7 -7 -7 -7 -7 -6 -6 -6 -5 -6 -6 -5 -6 -6 -6 -6 -8 -8 -8 -7 -7 -7 -6 -6 -5 -5 -5 -6 -6 -5 -5 -6 -6 -6 -6 -5 -6 -5 -6 -6
-5 -5 -6 -6 -6 -7 -7 -7 -8 -7 -7 -7 -6 -6 -6 -6 -6 -6 -6 -7 -7 -8 -9 -8 -8 -7 -7 -6 -6 -6 -5 -6 -6 -5 -5 -5 -6 -6 -6 -6 -6 -6 -5 -6 -6
-5 -5 -6 -6 -7 -7 -7 -7 -8 -8 -8 -7 -7 -6 -6 -6 -6 -7 -7 -7 -7 -8 -9 -9 -8 -8 -7 -7 -6 -6 -6 -6 -6 -6 -5 -5 -5 -5 -5 -6 -6 -6 -5 -6 -6
-5 -5 -6 -6 -7 -7 -7 -7 -7 -8 -8 -8 -8 -8 -6 -6 -7 -7 -7 -8 -8 -8 -9 -9 -9 -8 -7 -7 -6 -7 -6 -6 -6 -6 -5 -6 -4 -5 -6 -6 -6 -6 -6 -6 -6
-5 -6 -7 -7 -8 -8 -8 -8 -8 -8 -8 -8 -8 -8 -8 -8 -7 -7 -7 -8 -8 -8 -9 -9 -9 -8 -8 -7 -7 -7 -6 -6 -6 -6 -6 -6 -6 -5 -6 -5 -6 -6 -6 -6 -6
-6 -6 -7 -8 -8 -9 -8 -8 -8 -9 -8 -8 -8 -8 -8 -9 -8 -7 -7 -8 -8 -8 -9 -9 -9 -9 -8 -8 -7 -7 -7 -7 -7 -7 -6 -5 -6 -5 -5 -6 -6 -5 -6 -6 -6
-6 -7 -8 -9 -9 -9 -9 -9 -9 -9 -9 -9 -9 -8 -8 -9 -8 -7 -7 -8 -8 -8 -8 -10 -9 -9 -9 -8 -7 -7 -7 -7 -7 -6 -6 -5 -5 -6 -5 -5 -6 -6 -6 -6 -6
-7 -8 -9 -10 -10 -10 -10 -9 -9 -9 -9 -9 -9 -9 -9 -9 -9 -9 -8 -8 -8 -8 -9 -9 -9 -9 -9 -8 -8 -8 -7 -8 -7 -7 -6 -6 -6 -6 -6 -5 -5 -6 -6 -6 -7
-8 -9 -10 -10 -10 -11 -10 -10 -10 -10 -10 -10 -9 -9 -10 -10 -10 -10 -9 -8 -8 -9 -9 -9 -9 -9 -9 -8 -8 -8 -8 -8 -8 -7 -7 -6 -6 -6 -7 -6 -5 -6 -6 -6 -6
-9 -10 -10 -11 -11 -11 -11 -11 -11 -11 -10 -10 -10 -10 -10 -10 -10 -10 -11 -10 -9 -9 -9 -9 -9 -9 -9 -9 -9 -8 -8 -8 -8 -7 -7 -6 -6 -6 -6 -6 -6 -6 -6 -6 -7
-9 -10 -11 -11 -12 -12 -12 -12 -11 -11 -11 -11 -11 -11 -11 -11 -11 -10 -11 -11 -10 -9 -9 -9 -9 -9 -9 -8 -8 -8 -8 -8 -8 -8 -7 -7 -6 -6 -6 -5 -6 -6 -6 -6 -6
-10 -11 -12 -12 -12 -12 -12 -12 -12 -12 -12 -12 -12 -12 -11 -11 -11 -11 -11 -11 -11 -10 -10 -10 -9 -9 -9 -9 -9 -8 -9 -8 -8 -8 -8 -7 -7 -8 -7 -7 -7 -6 -6 -6 -6
-11 -12 -12 -13 -13 -13 -13 -13 -13 -13 -13 -13 -13 -13 -12 -12 -11 -11 -11 -11 -11 -11 -11 -10 -9 -9 -9 -9 -9 -9 -10 -9 -8 -8 -8 -8 -7 -7 -7 -7 -7 -5 -5 -6 -6
-12 -13 -13 -13 -13 -13 -13 -13 -14 -14 -14 -14 -13 -13 -13 -13 -12 -12 -12 -11 -12 -11 -11 -10 -10 -10 -10 -9 -9 -9 -10 -10 -9 -9 -8 -8 -7 -7 -7 -7 -7 -6 -5 -6 -6
-12 -13 -14 -14 -13 -13 -14 -14 -14 -15 -14 -14 -14 -13 -14 -14 -13 -13 -12 -12 -12 -12 -11 -11 -11 -11 -10 -10 -9 -9 -10 -9 -9 -9 -8 -8 -8 -7 -7 -7 -6 -6 -6 -6 -6
-12 -14 -14 -14 -14 -14 -14 -15 -15 -15 -15 -15 -14 -14 -14 -14 -14 -14 -13 -12 -12 -12 -12 -11 -11 -11 -11 -11 -10 -10 -10 -11 -10 -10 -9 -9 -9 -8 -7 -6 -6 -7 -7 -6 -5
-13 -14 -14 -14 -14 -14 -15 -16 -15 -15 -15 -15 -15 -14 -14 -14 -14 -15 -14 -13 -13 -13 -12 -12 -12 -12 -12 -11 -11 -10 -11 -10 -10 -10 -9 -9 -9 -8 -7 -7 -7 -7 -7 -6 -7
-14 -14 -14 -14 -14 -15 -15 -16 -16 -16 -16 -16 -15 -15 -15 -14 -14 -14 -14 -14 -14 -13 -13 -12 -12 -12 -12 -12 -12 -11 -11 -11 -11 -10 -9 -9 -8 -8 -8 -8 -8 -7 -7 -7 -8
-14 -14 -14 -14 -15 -15 -15 -15 -15 -15 -15 -15 -16 -16 -16 -16 -15 -15 -14 -15 -15 -14 -13 -13 -12 -13 -13 -12 -12 -13 -12 -12 -11 -10 -10 -9 -8 -8 -8 -8 -8 -8 -8 -7 -7
-14 -14 -15 -14 -14 -15 -15 -15 -15 -15 -15 -15 -16 -16 -16 -16 -16 -16 -16 -15 -15 -15 -14 -14 -13 -13 -13 -13 -13 -13 -13 -12 -12 -11 -11 -10 -9 -9 -9 -8 -8 -7 -8 -8 -7
-14 -15 -15 -14 -15 -15 -15 -15 -15 -15 -15 -15 -15 -15 -15 -15 -16 -16 -16 -15 -15 -15 -15 -15 -14 -14 -14 -14 -13 -13 -13 -12 -12 -12 -11 -10 -9 -10 -9 -9 -8 -9 -9 -9 -8
-15 -15 -15 -14 -14 -15 -15 -15 -15 -15 -15 -15 -15 -15 -16 -16 -16 -16 -16 -16 -15 -15 -15 -15 -15 -14 -14 -14 -14 -14 -13 -12 -12 -12 -12 -11 -10 -10 -10 -10 -9 -9 -9 -9 -9
-15 -15 -15 -15 -15 -15 -15 -15 -15 -15 -15 -15 -15 -15 -15 -15 -16 -16 -16 -15 -15 -15 -15 -15 -15 -14 -14 -15 -14 -14 -13 -13 -12 -12 -12 -11 -10 -10 -10 -10 -10 -10 -10 -9 -9
-15 -15 -15 -15 -15 -15 -15 -15 -15 -16 -16 -15 -15 -15 -15 -15 -15 -15 -15 -16 -16 -16 -16 -16 -15 -15 -15 -15 -14 -14 -13 -13 -13 -12 -12 -12 -11 -11 -10 -10 -11 -11 -10 -10 -9
Height
5840 5837 5835 5834 5834 5835 5837 5837 5839 5841 5842 5844 5846 5847 5849 5850 5852 5854 5856 5859 5862 5867 5871 5874 5878 5880 5880 5882 5885 5885 5880 5881 5886 5887 5892 5893 5893 5896 5897 5898 5900 5901 5903 5902 5900
5838 5834 5831 5829 5828 5828 5830 5832 5833 5835 5837 5839 5842 5844 5845 5847 5849 5852 5855 5856 5859 5864 5868 5872 5876 5880 5880 5880 5884 5885 5887 5888 5888 5892 5894 5893 5895 5895 5898 5900 5901 5902 5903 5904 5903
5836 5832 5829 5827 5825 5824 5823 5824 5827 5829 5831 5834 5836 5839 5841 5843 5846 5849 5851 5853 5856 5860 5866 5871 5875 5879 5879 5879 5884 5886 5886 5890 5892 5892 5893 5893 5895 5896 5898 5901 5902 5903 5904 5905 5906
5832 5829 5826 5824 5822 5821 5819 5820 5821 5822 5825 5827 5830 5833 5836 5839 5843 5844 5847 5850 5854 5858 5864 5868 5873 5876 5877 5879 5882 5887 5889 5890 5893 5894 5894 5893 5894 5896 5898 5900 5902 5904 5906 5906 5909
5829 5825 5821 5819 5818 5817 5817 5816 5815 5817 5819 5821 5823 5827 5830 5834 5838 5840 5844 5847 5851 5855 5861 5865 5869 5872 5874 5878 5881 5886 5889 5891 5894 5894 5894 5894 5895 5896 5896 5900 5902 5904 5907 5909 5910
5825 5821 5818 5814 5812 5811 5810 5811 5811 5811 5814 5815 5817 5819 5823 5828 5833 5836 5839 5843 5847 5851 5857 5862 5864 5867 5873 5877 5881 5885 5887 5891 5892 5895 5894 5895 5896 5891 5899 5900 5901 5903 5907 5910 5910
5820 5816 5812 5808 5806 5805 5804 5804 5805 5806 5807 5809 5812 5814 5816 5822 5827 5831 5834 5838 5842 5847 5852 5856 5859 5866 5871 5876 5881 5884 5887 5890 5893 5895 5895 5895 5892 5897 5900 5900 5902 5904 5906 5909 5913
5814 5810 5806 5802 5801 5799 5798 5798 5797 5799 5802 5804 5806 5809 5812 5815 5819 5824 5829 5834 5837 5843 5848 5853 5856 5862 5867 5875 5879 5883 5887 5890 5892 5894 5894 5895 5899 5900 5899 5900 5903 5904 5904 5909 5913
5807 5802 5799 5797 5794 5793 5792 5791 5792 5793 5795 5798 5801 5803 5808 5810 5811 5817 5823 5828 5833 5837 5843 5849 5854 5857 5867 5872 5877 5881 5884 5886 5890 5892 5894 5895 5897 5900 5900 5901 5903 5904 5904 5907 5912
5801 5795 5792 5789 5788 5786 5787 5787 5787 5788 5790 5792 5794 5798 5803 5806 5807 5810 5817 5823 5828 5833 5839 5846 5851 5855 5863 5869 5875 5878 5881 5884 5887 5891 5892 5893 5894 5899 5901 5900 5903 5904 5904 5907 5911
5793 5789 5786 5785 5782 5780 5782 5782 5784 5783 5784 5787 5790 5792 5797 5801 5805 5808 5812 5818 5824 5829 5835 5842 5849 5855 5860 5865 5870 5873 5878 5881 5885 5889 5891 5891 5892 5895 5898 5899 5901 5904 5904 5904 5908
5786 5782 5779 5777 5776 5775 5777 5776 5776 5776 5778 5781 5785 5788 5792 5797 5801 5807 5811 5815 5820 5826 5833 5840 5847 5851 5855 5860 5865 5870 5875 5879 5883 5885 5888 5889 5890 5891 5893 5897 5898 5900 5902 5904 5907
5781 5776 5773 5772 5771 5772 5771 5770 5770 5771 5773 5775 5780 5784 5787 5792 5796 5803 5808 5812 5816 5822 5830 5838 5842 5846 5850 5854 5861 5867 5872 5876 5879 5882 5884 5887 5888 5888 5891 5892 5894 5897 5900 5902 5904
5775 5771 5769 5767 5767 5766 5766 5766 5767 5767 5769 5772 5776 5780 5783 5787 5792 5798 5802 5808 5813 5818 5825 5832 5836 5840 5845 5850 5858 5864 5868 5869 5873 5877 5879 5882 5885 5885 5888 5889 5892 5894 5899 5899 5900
5770 5766 5764 5761 5762 5763 5763 5763 5764 5765 5766 5769 5771 5774 5778 5783 5789 5793 5799 5805 5809 5813 5821 5827 5830 5834 5840 5848 5853 5859 5862 5865 5868 5872 5875 5880 5883 5882 5886 5888 5889 5892 5895 5896 5898
5764 5761 5760 5760 5759 5760 5760 5761 5762 5764 5764 5766 5768 5771 5774 5779 5784 5789 5795 5800 5804 5806 5813 5818 5825 5831 5839 5842 5847 5852 5855 5860 5865 5866 5870 5876 5879 5881 5884 5886 5887 5890 5892 5894 5896
5760 5757 5756 5756 5756 5757 5758 5760 5762 5761 5764 5766 5767 5769 5772 5777 5781 5786 5792 5797 5802 5806 5810 5814 5821 5828 5831 5836 5841 5846 5849 5854 5860 5861 5867 5872 5873 5880 5882 5886 5888 5889 5891 5893 5895
5756 5754 5754 5753 5754 5755 5757 5759 5759 5761 5765 5766 5768 5769 5771 5773 5778 5784 5787 5791 5796 5804 5807 5810 5818 5824 5827 5833 5839 5844 5846 5850 5854 5859 5867 5868 5869 5876 5879 5882 5885 5887 5888 5889 5890
5752 5751 5751 5751 5752 5754 5756 5756 5759 5761 5765 5767 5769 5770 5772 5775 5779 5781 5785 5787 5790 5799 5804 5806 5812 5817 5822 5825 5832 5837 5839 5847 5851 5854 5859 5860 5867 5871 5874 5879 5881 5883 5885 5885 5885
5749 5749 5749 5750 5751 5753 5754 5756 5758 5760 5764 5767 5769 5772 5773 5775 5778 5780 5782 5785 5789 5795 5801 5806 5810 5813 5816 5821 5825 5831 5838 5840 5842 5848 5853 5855 5863 5868 5871 5874 5875 5879 5881 5881 5883
5748 5747 5748 5750 5751 5753 5754 5756 5757 5760 5764 5767 5769 5771 5774 5775 5777 5780 5782 5784 5786 5792 5797 5801 5806 5810 5813 5816 5820 5825 5829 5834 5839 5844 5847 5852 5859 5865 5869 5870 5871 5873 5877 5878 5880
5747 5747 5748 5750 5751 5753 5755 5756 5758 5758 5761 5763 5766 5768 5771 5774 5776 5778 5779 5781 5784 5787 5792 5797 5803 5806 5811 5812 5816 5820 5824 5828 5831 5838 5843 5846 5855 5860 5864 5866 5869 5869 5874 5876 5879
5746 5748 5748 5750 5752 5754 5756 5756 5757 5758 5759 5761 5764 5766 5769 5770 5773 5775 5776 5779 5782 5784 5787 5791 5796 5802 5805 5809 5811 5814 5819 5823 5826 5832 5836 5842 5851 5854 5859 5862 5865 5867 5870 5872 5875
5744 5746 5750 5751 5753 5755 5757 5758 5758 5758 5759 5762 5764 5765 5765 5765 5767 5771 5774 5776 5778 5781 5783 5786 5790 5794 5798 5800 5806 5809 5812 5817 5821 5826 5830 5836 5846 5850 5854 5858 5860 5862 5863 5868 5871
5744 5746 5750 5753 5754 5755 5758 5760 5759 5759 5760 5761 5763 5764 5763 5763 5763 5766 5770 5772 5773 5775 5777 5780 5784 5788 5790 5794 5799 5802 5806 5811 5817 5821 5825 5832 5840 5847 5848 5852 5856 5859 5861 5862 5863
5744 5745 5749 5752 5754 5756 5757 5758 5758 5758 5759 5759 5760 5760 5760 5761 5762 5763 5765 5766 5767 5769 5770 5772 5777 5780 5784 5787 5792 5795 5800 5806 5811 5815 5819 5825 5832 5840 5842 5846 5851 5854 5856 5858 5859
5742 5746 5748 5750 5752 5754 5756 5756 5757 5757 5757 5757 5758 5758 5759 5760 5760 5761 5762 5763 5763 5764 5765 5766 5768 5771 5776 5781 5783 5791 5795 5799 5804 5808 5814 5818 5824 5829 5835 5840 5844 5846 5850 5853 5855
Wind_Speed
21 21 20 20 24 26 27 28 29 28 28 26 23 19 18 20 21 20 23 27 29 27 22 19 16 13 14 11 7 11 9 8 5 15 14 9 4 7 6 9 12 9 6 11 10
20 21 20 19 17 20 24 26 29 30 30 28 26 22 19 20 22 22 20 26 29 29 26 23 20 15 15 14 9 5 4 6 8 7 5 15 9 6 7 7 10 11 10 11 11
21 20 21 21 18 16 19 24 26 30 29 29 28 25 21 21 21 21 22 24 29 30 28 23 20 16 16 17 11 6 4 2 3 7 4 10 4 4 5 7 8 9 11 12 9
21 21 21 20 19 17 16 20 24 26 29 29 30 29 24 22 23 23 22 22 27 30 28 23 20 16 18 18 13 9 6 4 3 11 4 3 3 4 7 8 8 9 8 14 10
24 22 22 21 20 19 18 19 21 27 28 28 28 30 28 26 24 23 23 23 25 31 29 25 22 22 21 18 17 10 9 7 6 12 3 5 5 11 4 10 12 9 8 11 12
30 24 23 22 20 20 19 20 19 23 28 28 28 29 30 29 27 25 24 23 24 30 29 27 27 27 24 20 18 12 11 9 5 7 2 0 3 3 6 6 11 8 8 9 13
33 27 23 23 21 21 21 20 21 20 25 29 28 29 30 30 28 29 27 26 25 30 31 31 30 29 26 22 19 16 14 10 8 8 5 4 5 7 4 4 6 6 8 9 10
33 27 25 24 22 20 21 19 20 20 22 26 27 29 30 29 29 30 30 30 28 27 31 33 34 32 30 23 21 18 16 13 12 11 8 6 4 6 7 6 12 7 9 13 11
32 27 26 25 23 22 21 20 20 19 23 24 24 27 29 30 33 32 33 33 32 31 35 34 33 33 27 24 21 18 17 14 13 15 12 8 5 5 6 2 11 9 14 12 13
32 29 26 24 24 22 21 21 18 19 21 25 25 25 27 32 34 34 34 35 34 33 33 35 32 30 26 24 21 20 18 17 16 18 15 16 10 9 7 8 1 9 15 13 17
32 30 26 24 24 22 19 17 17 18 20 24 26 24 24 29 34 34 35 36 36 36 33 34 32 26 23 24 24 24 19 16 16 16 16 13 11 9 11 11 8 3 4 16 19
33 30 25 23 23 20 16 15 15 18 20 24 27 26 22 24 30 32 31 34 35 36 33 33 33 30 28 26 26 26 22 18 16 19 21 18 17 12 10 10 7 10 9 11 15
31 27 23 22 22 18 13 13 16 17 19 24 25 25 26 27 29 31 29 29 32 33 32 30 33 35 33 31 29 27 24 21 22 21 20 21 19 17 16 10 13 10 12 18 22
28 24 21 21 19 13 11 11 12 15 16 20 23 25 27 28 29 31 30 29 31 30 30 31 34 36 38 36 30 28 27 28 26 25 24 22 25 17 17 17 17 15 22 20 19
24 20 19 18 15 10 8 8 10 12 13 16 22 25 27 30 28 30 33 31 30 30 30 30 35 36 37 34 34 32 32 31 30 27 27 23 25 25 21 16 17 20 18 19 21
20 18 18 14 12 7 5 6 12 13 13 15 20 23 26 27 30 32 33 33 35 35 33 35 36 37 32 35 35 36 37 35 32 32 32 25 26 18 17 14 22 23 20 15 22
17 17 13 11 10 5 3 9 14 14 14 14 19 23 23 21 27 29 29 32 34 33 32 33 33 33 34 36 37 37 40 39 35 39 34 30 33 26 21 21 14 14 23 21 24
17 15 9 8 8 2 2 11 14 14 13 15 15 19 21 22 22 25 28 32 35 33 31 32 30 27 31 32 34 34 41 41 41 38 30 32 35 28 24 19 21 17 18 22 24
16 11 7 8 6 1 5 12 11 14 13 14 12 16 19 20 21 25 28 32 36 34 35 34 30 30 31 32 34 37 43 42 39 36 34 34 30 28 22 20 18 20 17 16 18
13 5 9 9 5 2 9 11 10 10 11 13 15 13 13 14 20 22 25 29 30 30 31 33 31 33 32 33 36 35 37 43 44 42 38 39 27 21 20 18 19 19 15 13 13
9 7 8 8 5 6 9 8 7 12 13 11 14 14 13 15 16 20 23 26 26 26 29 34 33 34 35 35 36 36 37 40 37 41 41 39 35 28 22 21 22 22 17 12 7
8 6 9 9 9 7 8 8 7 12 12 12 15 15 14 15 13 15 19 21 22 21 27 31 33 31 35 36 38 39 40 40 42 40 41 42 36 29 27 25 25 23 19 16 12
6 7 10 9 8 8 7 4 7 9 9 8 13 16 16 19 19 20 20 19 20 20 23 27 33 31 35 38 38 42 43 42 43 40 40 38 35 32 30 29 26 25 26 13 11
3 7 10 9 6 5 4 2 1 2 4 8 8 6 9 16 25 24 22 19 20 22 24 24 27 32 36 40 41 42 44 46 46 44 43 42 33 32 29 26 22 20 16 14 15
4 8 9 8 6 6 8 4 1 5 4 6 8 6 3 5 13 21 23 23 23 26 25 25 25 26 33 41 41 42 45 43 42 47 44 43 39 31 33 34 31 23 19 18 19
4 7 10 11 10 7 6 5 2 4 5 4 1 1 6 5 7 13 17 17 15 24 27 22 26 30 31 38 42 46 45 42 39 39 41 43 41 39 40 35 30 27 24 24 26
7 9 11 12 9 7 6 6 6 9 9 10 10 10 6 4 10 12 15 16 14 19 20 17 18 31 32 35 41 40 47 44 39 37 35 34 35 35 42 47 42 32 21 22 22
Wind_Direction
321 316 309 294 280 272 266 255 253 249 249 255 261 259 252 242 239 233 225 218 212 212 209 213 208 202 232 236 220 260 41 129 142 142 131 127 138 164 155 110 106 96 98 87 112
328 324 315 308 295 275 265 259 252 249 247 246 252 256 252 244 239 236 232 221 212 210 207 213 211 201 221 243 236 254 37 60 98 103 71 115 123 116 162 120 115 122 106 97 96
338 327 319 313 301 284 264 253 250 249 248 246 247 250 248 242 241 235 231 225 218 212 206 211 217 207 214 238 231 222 224 56 337 134 46 134 71 78 169 162 104 112 124 114 113
335 328 318 310 306 294 273 259 247 239 242 243 244 246 246 240 235 233 229 226 223 213 205 207 210 210 216 226 237 224 215 155 134 38 60 63 139 74 153 171 116 126 150 132 118
335 323 315 309 300 295 283 269 256 244 236 232 236 241 245 239 234 228 227 228 219 214 206 202 207 210 214 211 230 214 213 204 267 313 125 56 146 133 210 157 134 126 151 128 121
337 325 313 305 295 283 278 273 268 248 243 237 227 229 234 239 233 224 220 224 222 211 206 203 207 209 212 210 219 224 228 213 236 293 158 163 7 270 173 86 131 127 151 151 139
334 322 307 300 294 278 269 263 262 253 241 241 236 225 222 228 225 224 217 216 223 211 202 204 211 211 211 206 209 213 219 229 235 240 154 122 208 143 120 178 136 155 164 163 158
330 318 304 296 293 281 268 262 252 247 240 239 236 232 225 209 210 218 216 214 215 218 205 207 212 215 211 207 209 212 214 216 223 249 192 179 159 175 181 217 152 199 188 169 175
326 313 302 296 290 279 269 258 251 240 233 230 230 228 231 214 204 210 213 214 213 213 210 208 216 221 211 211 210 214 211 219 217 208 208 215 207 183 195 105 209 245 189 178 180
322 310 301 293 290 281 272 266 254 245 235 225 224 224 227 222 209 207 209 212 211 216 216 207 213 225 219 213 209 216 216 216 222 220 231 224 201 211 227 169 216 204 193 191 182
317 308 302 298 292 283 275 269 255 240 235 228 224 220 219 224 219 209 205 209 212 215 214 213 215 220 223 216 211 215 215 219 219 231 225 207 212 212 225 219 249 267 259 221 183
314 312 305 295 293 288 280 265 249 237 229 224 221 209 206 218 222 216 211 208 211 215 213 211 213 218 220 216 212 214 208 217 219 215 218 230 225 229 223 231 231 255 244 187 198
319 313 301 296 297 294 278 254 243 234 224 221 220 210 198 205 215 215 214 213 208 212 211 211 211 217 220 220 216 214 211 211 218 215 220 226 232 222 224 220 234 246 257 218 199
321 313 299 295 296 288 268 257 246 234 220 215 211 207 200 201 205 214 208 210 210 208 207 207 209 215 221 223 219 217 216 218 220 216 227 226 237 219 226 235 238 236 243 257 216
319 307 298 297 299 280 267 255 230 222 218 208 201 201 202 200 201 208 211 208 203 205 205 204 208 213 218 221 220 219 219 224 226 226 228 232 242 265 271 256 234 239 242 251 227
314 305 303 306 293 273 263 228 207 206 193 197 195 193 200 205 203 203 207 206 208 200 198 205 209 215 213 219 221 216 217 222 226 234 236 236 242 250 261 274 253 247 237 222 191
316 307 305 299 273 261 239 195 199 205 194 191 194 192 194 197 208 208 209 209 216 209 198 204 208 211 212 215 219 218 220 222 224 232 240 241 247 246 257 252 263 250 226 209 210
317 313 296 277 261 249 249 198 204 196 194 197 193 195 187 189 198 206 208 209 214 215 203 203 206 209 213 218 222 221 224 228 227 236 243 243 245 248 249 249 251 247 230 214 237
316 314 275 247 236 236 224 192 174 191 211 199 215 193 194 185 194 200 207 214 214 212 211 203 203 204 209 209 216 217 219 224 231 233 231 238 240 235 240 243 242 249 243 239 231
313 300 262 224 202 208 183 189 192 191 199 199 200 206 213 210 195 197 212 220 223 216 214 212 206 202 205 210 217 220 221 226 229 233 231 234 232 241 248 242 221 234 238 245 214
323 263 227 206 190 169 173 178 212 221 207 221 205 211 205 212 225 210 216 224 230 225 221 217 209 206 208 207 216 218 219 222 227 231 233 240 241 242 241 235 224 232 230 227 267
309 246 208 202 183 172 172 197 219 223 224 215 216 225 221 223 222 224 238 229 230 230 220 221 216 212 212 213 212 216 222 225 231 233 232 236 239 236 235 237 235 232 229 232 240
302 235 202 200 175 181 182 240 272 261 242 221 214 223 238 241 232 220 237 231 242 237 231 220 215 209 213 220 219 217 220 227 232 233 232 236 235 235 235 236 235 241 241 234 247
273 225 204 195 177 192 204 147 89 214 226 200 206 223 241 238 234 238 242 255 258 248 249 242 228 216 210 218 222 224 222 224 230 237 240 237 227 229 232 226 229 240 259 270 265
193 215 216 201 213 212 212 191 162 77 103 175 200 185 186 229 214 227 237 247 253 252 255 251 240 230 219 216 219 226 230 228 230 235 241 245 237 230 237 243 243 239 247 268 286
215 220 216 211 224 238 236 199 258 337 329 318 307 214 183 181 205 207 231 242 258 255 252 244 231 238 231 232 221 221 230 234 233 236 239 244 246 236 236 239 246 242 245 261 278
210 216 217 212 231 245 243 264 294 317 304 281 289 300 297 264 221 220 233 243 238 250 227 245 247 222 222 231 232 227 231 233 236 236 239 241 242 242 236 237 244 248 247 261 267